Terminal Aerodrome Forecast
Issued by NWS Newport/Morehead City, NC

Home | Current Version | Previous Version | Graphics & Text | Print | Product List | Glossary On
Versions: 1 2 3 4 5 6 7 8 9 10 11 12 13 14 15 16 17 18 19 20 21 22 23
000
FTUS42 KMHX 271100 AAC
TAFEWN
TAF AMD
KEWN 271102Z 2711/2806 22005KT 3SM BR SCT050
     FM271300 21007KT P6SM SCT040
     FM271700 23008KT P6SM SCT040
     FM280100 20010KT P6SM SKC=

USA.gov is the U.S. government's official web portal to all federal, state and local government web resources and services.